Flag for Germany Weather past 2 weeks in Paderborn, North Rhine-Westphalia, Germany

36 °F

Passing clouds.

Feels Like: 32 °F
Forecast: 36 / 44 °F
Wind: 5 mph from Northeast

Location: Paderborn / Lippstadt

Current Time: Oct 14, 2015 at 5:31:50 AM

Latest Report: Oct 14, 2015 at 4:50 AM

Visibility: N/A

Pressure: 30.07 "Hg

Humidity: 87%

Dew point: 32 °F

Location of PaderbornLocation

Historic Weather in Paderborn — Graph


Paderborn temperature yesterday

Maximum temperature yesterday: 37 °F (at 11:20 AM)
Minimum temperature yesterday: 32 °F (at 7:20 AM)
Average temperature yesterday: 36 °F

Past Weeks' High & Low Weather Summary

High66 °F (Oct 6, 2:50 PM)100% (Sep 29, 5:20 AM)30.63 "Hg (Sep 29, 5:20 AM)
Low30 °F (Oct 12, 6:50 AM)39% (Oct 2, 5:20 PM)29.65 "Hg (Oct 6, 5:20 AM)
Average49 °F78%30.12 "Hg
* Reported Sep 29 3:20 AM — Oct 14 3:50 AM, Paderborn, Weather by CustomWeather, © 2015

Note: Actual official high and low records may vary slightly from our data, if they occured in-between our weather recording intervals... More about our weather records


Paderborn weather history for previous 24 hours

Time TempWeatherWind HumidityBarometerVisibility
3:50 AM
Wed, Oct 14
36 °FPassing clouds.2 mph87%30.07 "HgN/A
3:20 AM36 °FPassing clouds.2 mph81%30.09 "HgN/A
2:50 AM36 °FPassing clouds.5 mph81%30.09 "HgN/A
2:20 AM36 °FPassing clouds.7 mph81%30.09 "HgN/A
1:50 AM36 °FOvercast.9 mph81%30.09 "HgN/A
1:20 AM36 °FOvercast.9 mph81%30.09 "HgN/A
12:50 AM36 °FOvercast.8 mph81%30.09 "HgN/A
12:20 AM36 °FOvercast.6 mph81%30.09 "HgN/A
11:50 PM
Tue, Oct 13
36 °FOvercast.7 mph81%30.09 "HgN/A
11:20 PM36 °FOvercast.7 mph81%30.09 "HgN/A
10:50 PM36 °FOvercast.7 mph81%30.09 "HgN/A
10:20 PM36 °FPassing clouds.8 mph81%30.09 "HgN/A
9:50 PM36 °FPassing clouds.10 mph81%30.09 "HgN/A
9:20 PM36 °FPassing clouds.9 mph81%30.09 "HgN/A
8:50 PM36 °FPassing clouds.10 mph81%30.09 "HgN/A
8:20 PM36 °FPassing clouds.12 mph81%30.09 "HgN/A
7:50 PM36 °FPassing clouds.9 mph81%30.09 "HgN/A
7:20 PM36 °FPartly sunny.10 mph81%30.09 "Hg5 mi
6:50 PM36 °FPartly sunny.9 mph81%30.09 "Hg4 mi
6:20 PM37 °FPartly sunny.8 mph75%30.07 "Hg4 mi
5:50 PM37 °FPartly sunny.7 mph75%30.07 "Hg4 mi
5:20 PM37 °FPartly sunny.9 mph75%30.07 "Hg4 mi
4:50 PM37 °FPartly sunny.9 mph81%30.07 "Hg4 mi
4:20 PM37 °FPartly sunny.10 mph81%30.07 "Hg4 mi
3:50 PM37 °FPartly sunny.12 mph81%30.07 "Hg4 mi
3:20 PM37 °FPartly sunny.9 mph81%30.07 "Hg4 mi
2:50 PM37 °FPartly sunny.12 mph81%30.07 "Hg4 mi
2:20 PM37 °FPartly sunny.12 mph81%30.07 "Hg4 mi
1:50 PM37 °FPartly sunny.12 mph81%30.07 "Hg4 mi
1:20 PM37 °FPartly sunny.13 mph81%30.07 "Hg4 mi
12:50 PM37 °FPartly sunny.12 mph81%30.07 "Hg4 mi
12:20 PM37 °FBroken clouds.13 mph81%30.07 "Hg4 mi
11:50 AM37 °FBroken clouds.9 mph81%30.07 "Hg4 mi
11:20 AM37 °FBroken clouds.14 mph81%30.07 "Hg4 mi
10:50 AM36 °FFog.14 mph87%30.04 "Hg3 mi
10:20 AM36 °FBroken clouds.12 mph87%30.04 "Hg3 mi
9:50 AM34 °FPartly sunny.13 mph93%30.04 "Hg3 mi
9:20 AM34 °FPartly sunny.15 mph87%30.04 "Hg3 mi
8:50 AM34 °FFog.13 mph87%30.01 "Hg3 mi
8:20 AM34 °FFog.14 mph87%30.01 "Hg3 mi
7:50 AM32 °FClear.9 mph93%30.01 "Hg4 mi
7:20 AM32 °FClear.7 mph87%30.01 "Hg10 mi
6:50 AM34 °FClear.7 mph81%30.01 "Hg10 mi
6:20 AM34 °FClear.7 mph87%30.01 "Hg10 mi
5:50 AM34 °FClear.8 mph81%30.01 "Hg10 mi
5:20 AM36 °FClear.9 mph75%30.01 "Hg10 mi
Weather by CustomWeather, © 2015

See weather overviewHow to use our weather pages